Weather History for KEWR - August, 2014

Change the Weather History Date:

Wednesday, August 27, 2014

  Actual Average Record
Temperature  
Mean Temperature 80 °F 74 °F  
Max Temperature 93 °F 83 °F 100 °F (1993)
Min Temperature 67 °F 66 °F 52 °F (1940)
Degree Days  
Heating Degree Days 0 0  
Month to date heating degree days 0 0  
Since 1 June heating degree days 0 17  
Since 1 July heating degree days 0 0  
Cooling Degree Days 15 9  
Month to date cooling degree days 264 300  
Year to date cooling degree days 953 998  
Since 1 June cooling degree days 891 922  
Growing Degree Days 30 (Base 50)    
Moisture  
Dew Point 63 °F    
Average Humidity 62    
Maximum Humidity 87    
Minimum Humidity 36    
Precipitation  
Precipitation 0.00 in 0.10 in 5.93 in (1971)
Month to date precipitation 1.72 3.32  
Year to date precipitation 34.58 30.99  
Snow  
Snow 0.00 in 0.00 in 0.00 in (2002)
Month to date snowfall 0.0 0.0  
Since 1 July snowfall 0.0 0.0  
Snow Depth 0.00 in    
Sea Level Pressure  
Sea Level Pressure 29.96 in    
Wind  
Wind Speed 7 mph (SW)    
Max Wind Speed 15 mph    
Max Gust Speed 18 mph    
Visibility 10 miles    
Events      
T = Trace of Precipitation, MM = Missing Value Source: NWS Daily Summary

Daily Weather History Graph

Daily Weather History Graph

Search for Another Location

Airport or City:

Trip Planner

Search our weather history database for the weather conditions in past years. The results will help you decide how hot, cold, wet, or windy it might be!

Date:

Astronomy

Aug. 27, 2014 Rise Set
Actual Time 6:18 AM EDT 7:36 PM EDT
Civil Twilight 5:50 AM EDT 8:05 PM EDT
Nautical Twilight 5:16 AM EDT 8:39 PM EDT
Astronomical Twilight 4:40 AM EDT 9:14 PM EDT
Moon 8:13 AM EDT (8/27) 8:26 PM EDT (8/27)
Length of Visible Light 14h 14m
Length of Day
13h 18m
Waxing Crescent, 4% of the Moon is Illuminated
Aug 27
Waxing Crescent
Sep 2
First Quarter
Sep 8
Full
Sep 15
Last Quarter
Sep 24
New

Hourly Weather History & Observations

Time (EDT) Temp. Heat Index Dew Point Humidity Pressure Visibility Wind Dir Wind Speed Gust Speed Precip Events Conditions
12:51 AM 71.1 °F - 60.1 °F 68% 30.08 in 10.0 mi SW 6.9 mph - N/A   Partly Cloudy
1:51 AM 69.8 °F - 60.8 °F 73% 30.06 in 10.0 mi WSW 9.2 mph - N/A   Partly Cloudy
2:51 AM 69.1 °F - 61.0 °F 75% 30.05 in 10.0 mi WSW 6.9 mph - N/A   Clear
3:51 AM 69.1 °F - 62.1 °F 78% 30.04 in 10.0 mi West 3.5 mph - N/A   Clear
4:51 AM 69.1 °F - 62.1 °F 78% 30.03 in 10.0 mi West 4.6 mph - N/A   Clear
5:51 AM 68.0 °F - 63.0 °F 84% 30.03 in 10.0 mi Calm Calm - N/A   Clear
6:51 AM 66.9 °F - 63.0 °F 87% 30.04 in 10.0 mi Calm Calm - N/A   Partly Cloudy
7:51 AM 72.0 °F - 64.0 °F 76% 30.04 in 10.0 mi SSW 4.6 mph - N/A   Partly Cloudy
8:51 AM 75.2 °F - 64.4 °F 69% 30.04 in 10.0 mi SW 5.8 mph - N/A   Partly Cloudy
9:51 AM 80.1 °F 81.5 °F 63.0 °F 56% 30.03 in 10.0 mi SSW 5.8 mph - N/A   Partly Cloudy
10:51 AM 84.0 °F 84.9 °F 63.0 °F 49% 30.02 in 10.0 mi SW 5.8 mph - N/A   Scattered Clouds
11:51 AM 88.0 °F 88.4 °F 62.1 °F 42% 29.99 in 10.0 mi Variable 3.5 mph - N/A   Scattered Clouds
12:51 PM 89.1 °F 89.0 °F 61.0 °F 39% 29.96 in 10.0 mi SSW 8.1 mph - N/A   Partly Cloudy
1:51 PM 91.9 °F 91.8 °F 61.0 °F 35% 29.94 in 10.0 mi WSW 10.4 mph - N/A   Partly Cloudy
2:51 PM 91.9 °F 91.8 °F 61.0 °F 35% 29.91 in 10.0 mi West 10.4 mph 16.1 mph N/A   Partly Cloudy
3:51 PM 91.0 °F 91.5 °F 62.1 °F 38% 29.89 in 10.0 mi SSW 4.6 mph 16.1 mph N/A   Scattered Clouds
4:51 PM 91.0 °F 91.9 °F 63.0 °F 39% 29.88 in 10.0 mi SSW 11.5 mph - N/A   Scattered Clouds
5:51 PM 91.0 °F 92.6 °F 64.0 °F 41% 29.87 in 10.0 mi SW 9.2 mph 17.3 mph N/A   Scattered Clouds
6:51 PM 89.1 °F 91.0 °F 64.9 °F 45% 29.86 in 10.0 mi West 13.8 mph - N/A   Scattered Clouds
7:51 PM 84.0 °F 85.8 °F 64.9 °F 53% 29.86 in 10.0 mi SSW 9.2 mph - N/A   Scattered Clouds
8:51 PM 84.9 °F 86.6 °F 64.9 °F 51% 29.88 in 10.0 mi SSW 6.9 mph - N/A   Mostly Cloudy
9:51 PM 82.9 °F 84.6 °F 64.9 °F 54% 29.88 in 10.0 mi SSW 8.1 mph - N/A   Overcast
10:51 PM 80.6 °F 82.7 °F 66.2 °F 61% 29.87 in 10.0 mi South 4.6 mph - N/A   Mostly Cloudy
11:51 PM 78.1 °F - 66.9 °F 68% 29.87 in 10.0 mi North 4.6 mph - N/A   Mostly Cloudy